Weatherford, Texas, United States (76085)
Lat: 32.76N, Lon: 97.8W
Wx Zone: TXZ117
Local Info
Past Weather Observations for Yesterday

NOTE: This archive is for the closest National Weather Service station to Weatherford. Information may differ from the station used for current weather conditions.

Click here for Long-term Archive

Time Weather Temperature Dewpoint Humidity Pressure Winds Precip Visibility
23:53
Clear
64°F / 18°C 57°F / 14°C 78% 30.09 in
(1019 mb)
SE 10.4 mph
(SE 17 kph)
- 8SM
22:53
Clear
64°F / 18°C 57°F / 14°C 78% 30.09 in
(1019 mb)
SE 10.4 mph
(SE 17 kph)
- 7SM
21:53
Partly Cloudy
66°F / 19°C 59°F / 15°C 78% 30.09 in
(1019 mb)
SE 9.2 mph
(SE 15 kph)
- 8SM
20:53
Clear
68°F / 20°C 59°F / 15°C 73% 30.09 in
(1019 mb)
SE 8.1 mph
(SE 13 kph)
- 9SM
19:53
Clear
70°F / 21°C 59°F / 15°C 69% 30.06 in
(1018 mb)
SE 8.1 mph
(SE 13 kph)
- 10SM
18:53
Partly Cloudy
72°F / 22°C 59°F / 15°C 65% 30.06 in
(1018 mb)
SSE 8.1 mph
(SSE 13 kph)
- 10SM
17:53
Partly Cloudy
75°F / 24°C 59°F / 15°C 57% 30.04 in
(1017 mb)
SE 6.9 mph
(SE 11 kph)
- 10SM
16:53
Partly Cloudy
79°F / 26°C 57°F / 14°C 48% 30.04 in
(1017 mb)
SE 6.9 mph
(SE 11 kph)
- 10SM
15:53
Clear
81°F / 27°C 57°F / 14°C 45% 30.04 in
(1017 mb)
S 8.1 mph
(S 13 kph)
- 10SM
14:53
Partly Cloudy
82°F / 28°C 57°F / 14°C 42% 30.04 in
(1017 mb)
SSW 3.5 mph
(SSW 6 kph)
- 10SM
13:53
Partly Cloudy
79°F / 26°C 57°F / 14°C 48% 30.06 in
(1018 mb)
S 3.5 mph
(S 6 kph)
- 10SM
12:53
Partly Cloudy
79°F / 26°C 57°F / 14°C 48% 30.09 in
(1019 mb)
Variable 4.6 mph
(Variable 7 kph)
- 10SM
11:53
Overcast
77°F / 25°C 57°F / 14°C 51% 30.12 in
(1020 mb)
S 9.2 mph
(S 15 kph)
- 10SM
10:53
Clear
75°F / 24°C 57°F / 14°C 54% 30.12 in
(1020 mb)
S 8.1 mph
(S 13 kph)
- 9SM
09:53
Clear
72°F / 22°C 57°F / 14°C 61% 30.15 in
(1021 mb)
SSE 10.4 mph
(SSE 17 kph)
- 9SM
08:53
Partly Cloudy
66°F / 19°C 57°F / 14°C 73% 30.15 in
(1021 mb)
SSE 6.9 mph
(SSE 11 kph)
- 8SM
07:53
Overcast
64°F / 18°C 57°F / 14°C 78% 30.12 in
(1020 mb)
SE 6.9 mph
(SE 11 kph)
- 7SM
06:53
Overcast
63°F / 17°C 57°F / 14°C 83% 30.12 in
(1020 mb)
SE 8.1 mph
(SE 13 kph)
- 8SM
05:53
Overcast
63°F / 17°C 57°F / 14°C 83% 30.12 in
(1020 mb)
ESE 5.8 mph
(ESE 9 kph)
- 8SM
04:53
Overcast
64°F / 18°C 57°F / 14°C 78% 30.09 in
(1019 mb)
SE 6.9 mph
(SE 11 kph)
- 9SM
03:53
Overcast
64°F / 18°C 57°F / 14°C 78% 30.09 in
(1019 mb)
SE 6.9 mph
(SE 11 kph)
- 9SM
02:53
Overcast
64°F / 18°C 57°F / 14°C 78% 30.09 in
(1019 mb)
SE 6.9 mph
(SE 11 kph)
- 8SM
01:53
Overcast
64°F / 18°C 57°F / 14°C 78% 30.09 in
(1019 mb)
SE 4.6 mph
(SE 7 kph)
- 8SM
00:53
Overcast
66°F / 19°C 57°F / 14°C 73% 30.09 in
(1019 mb)
SE 4.6 mph
(SE 7 kph)
- 7SM
Time Weather Temperature Dewpoint Humidity Pressure Winds Precip Visibility


Weather for websites

WeatherForYou.com, LLC is not responsible for any damages or problems caused by this service. Current weather conditions are obtained from the closest station including government and personal stations which may have varying degrees of accuracy. Weather forecasts are derived from the NOAA NDFD. Like all things, this site belongs to Jesus Christ... He just trusts me to maintain it. If you have any questions or comments email webmaster@weatherforyou.com

Copyright © 2014, WeatherForYou.com LLC. All rights reserved.